STARLINK-3774 (52680 NORAD) Tracking and Keplerian Element Data

This shows tracking and keplerian element data for the satellite.

Feedback or suggestion? Click here.




ElementValue
Catalog52680
NameSTARLINK-3774
Epoch Orbit130
Epoch Day192.91667824
Epoch Year2022
RAAN28.7173
Inclination53.2174
Eccentricity0.0001591
Argument of Perigee44.2173
Mean Anonmoly75.6603
Mean Motion15.53791121
Decay Rate-0.01059735
L11 52680U 22053AA 22192.91667824 -.01059735 00000+0 -17855-1 0 9990
L22 52680 53.2174 28.7173 0001591 44.2173 75.6603 15.53791121 1306

Live tracking and technical data element details for STARLINK-3774 (NORAD 52680). STARLINK-3774 can be tracked NOW for your location showing map with azimuth and elevation plus other details from your city location.

Track the satellite on the map from your city or location and see movement details for azimuth, elevation, latitude, longitude, range, height, and movement on the map or in text.







IsCatalogInMostPopularTable: catalog: 52680, numindb: 6
Update: records affected: 1



GetName: 52680 STARLINK-3774

Hit Count: updated at: Sun, 14 Aug 2022 00:22:17 GMT